[[{"header":{"parameterUnit":"m.s-1","parameterCategory":2,"la1":30.2991,"la2":30.254,"lo1":-89.0895,"lo2":-89.0444,"dy":0.0017,"dx":0.0017,"nx":28,"ny":28,"refTime":"2025-08-17T09:00:00:Z","depth":"0","parameterNumber":2,"parameterNumberName":"U-component_of_CURRENTS"},"data":[0,0,0,0,0,0,0,0,0,0,0,0,0,0,0,0,0,0,0,0,0,0,0,0,0,0,0,0,0,0,0,0,0,0,0,0,0,0,0,0,0,0,0,0,0,0,0,0,0,0,0,0,0,0,0,0,0,0,0.314,0.3141,0,0.3185,0.3185,0.3186,0.3206,0.3206,0.3206,0.3206,0.3239,0.324,0.3241,0,0,0,0,0,0,0,0,0,0,0,0,0,0.3099,0.31,0.314,0.3141,0.3141,0.3185,0.3185,0.3186,0.3206,0.3206,0.3206,0.3206,0.3239,0.324,0.3241,0,0,0,0,0,0,0,0,0,0,0,0,0,0.3129,0.31,0.314,0.3156,0.3157,0.3185,0.3185,0.3186,0.3206,0.3206,0.3206,0.3206,0.3238,0.324,0.3241,0.3256,0,0,0.3246,0.3247,0,0,0,0,0,0,0,0,0.3127,0.313,0.3153,0.3155,0.3157,0.3189,0.3183,0.3209,0.3207,0.3189,0.3206,0.3206,0.3221,0.3224,0.3234,0.3257,0.3259,0.3246,0.3247,0.3248,0.3248,0,0,0,0,0,0,0,0.3125,0.3129,0.3159,0.3153,0.3156,0.3169,0.3173,0.3188,0.3206,0.3191,0.3192,0.3195,0.3222,0.3233,0.3235,0.3259,0.3246,0.3248,0.3249,0.3249,0.3398,0.3401,0,0,0,0,0,0,0.3116,0.3127,0.3158,0.3161,0.3139,0.317,0.3174,0.318,0.3207,0.321,0.3195,0.3196,0.323,0.3234,0.3237,0.3318,0.3248,0.3249,0.325,0.3395,0.3398,0.3402,0,0,0,0,0,0,0.3115,0.3118,0.3156,0.3143,0.3149,0.317,0.3177,0.3181,0.3201,0.321,0.3213,0.3212,0.323,0.3234,0.3259,0.3316,0.325,0.3251,0.3391,0.3396,0.34,0.3439,0,0,0,0,0,0,0.3114,0.3118,0.3129,0.3143,0.3149,0.3198,0.3177,0.3182,0.3202,0.3204,0.3226,0.3228,0.323,0.3257,0.3261,0.3317,0.3253,0.3387,0.3393,0.3399,0.3434,0.3445,0.3454,0,0,0,0,0,0.3112,0.3132,0.3129,0.3133,0.316,0.32,0.3206,0.322,0.3203,0.3233,0.3231,0.3228,0.3298,0.3259,0.3264,0.3322,0.3385,0.3392,0.3398,0.343,0.3443,0.3453,0,0,0,0,0,0,0.3118,0.3136,0.3133,0.3157,0.3185,0.3203,0.3227,0.3227,0.3248,0.3242,0.324,0.3244,0.3299,0.3305,0.3263,0.3388,0.3352,0.336,0.3375,0.3387,0.3396,0.3386,0.3254,0,0,0,0,0,0.3122,0.3141,0.3163,0.3181,0.3197,0.321,0.3227,0.3235,0.3249,0.3259,0.3273,0.3297,0.3332,0.3349,0.3382,0.3428,0.3448,0.3481,0.349,0.3498,0.3497,0.3603,0.3621,0.3424,0.3424,0.3424,0,0,0.3123,0.3139,0.3146,0.3184,0.3201,0.325,0.3221,0.3252,0.3304,0.3258,0.3327,0.3325,0.3352,0.3414,0.3442,0.3422,0.3561,0.3507,0.3513,0.3508,0.3612,0.3631,0.3648,0.3428,0.3428,0.3427,0,0,0.3144,0.3155,0.3183,0.3218,0.3252,0.3276,0.3288,0.3319,0.3349,0.3394,0.3388,0.3404,0.3463,0.3489,0.3509,0.3591,0.3608,0.3626,0.3662,0.3765,0.3782,0.3796,0.3817,0.3834,0.3631,0.3631,0.3631,0,0.3149,0.319,0.32,0.3246,0.3285,0.3294,0.3349,0.339,0.3428,0.3459,0.343,0.3502,0.3502,0.3581,0.3601,0.3611,0.3652,0.3606,0.3776,0.3791,0.3805,0.3824,0.3841,0.3634,0.3634,0.3633,0.3633,0,0.3192,0.324,0.3264,0.3332,0.3376,0.3426,0.3481,0.3528,0.3545,0.3576,0.3644,0.3628,0.3669,0.3683,0.3653,0.3767,0.3754,0.3772,0.3736,0.3827,0.3841,0.3858,0.3638,0.3637,0.3636,0.3635,0,0,0.3174,0.3277,0.3288,0.3349,0.3429,0.3475,0.3565,0.3656,0.3708,0.3742,0.3809,0.3833,0.3803,0.3822,0.3802,0.3858,0.3956,0.3852,0.3856,0.3853,0.4145,0.4009,0.4014,0.4022,0.4027,0.403,0.41,0,0.3216,0.3331,0.3362,0.3484,0.3564,0.3605,0.3687,0.3761,0.3809,0.3879,0.3885,0.3932,0.3875,0.3867,0.3926,0.3955,0.4011,0.3931,0.4073,0.4076,0.3931,0.4034,0.3795,0.3829,0.4117,0.412,0.4122,0,0.325,0.3341,0.3459,0.3593,0.3622,0.368,0.3802,0.3873,0.3967,0.3994,0.4035,0.4039,0.4095,0.4035,0.4149,0.4111,0.4131,0.4142,0.4147,0.4018,0.3975,0.3795,0.3849,0.3733,0.4149,0.4147,0.4145,0,0.3265,0.3407,0.3511,0.3558,0.3697,0.3743,0.3809,0.3902,0.3954,0.406,0.4079,0.4172,0.4186,0.4269,0.4259,0.4237,0.4376,0.4363,0.4257,0.4244,0.4063,0.4028,0.4003,0.447,0.447,0.447,0.447,0,0.3309,0.3395,0.3523,0.3586,0.3696,0.377,0.3853,0.3929,0.3999,0.405,0.4123,0.4152,0.4254,0.4319,0.4332,0.4334,0.4454,0.4271,0.4276,0.4065,0.4031,0.3937,0.3911,0.4473,0.4472,0.4472,0.4471,0,0.3305,0.3386,0.3519,0.3668,0.3704,0.3778,0.3858,0.3907,0.398,0.4041,0.4069,0.4175,0.4262,0.4329,0.4445,0.4392,0.4289,0.4401,0.4094,0.406,0.3808,0.3793,0.3678,0.3583,0.4295,0.4292,0.429,0,0.3317,0.3388,0.3555,0.3606,0.3664,0.3759,0.38,0.389,0.3926,0.4028,0.4052,0.4156,0.4187,0.4286,0.4253,0.4269,0.4201,0.4045,0.3952,0.3766,0.3757,0.3652,0.3575,0.3719,0.3712,0.3707,0.3702,0,0.3362,0.3407,0.3516,0.3613,0.3672,0.3723,0.379,0.3802,0.3885,0.3911,0.3947,0.3976,0.4045,0.3947,0.3969,0.3948,0.3815,0.3929,0.3855,0.3396,0.3168,0.3085,0.3657,0.3654,0.3658,0.3662,0.3665,0.3667,0.3383,0.3451,0.3562,0.3625,0.3671,0.3658,0.3628,0.3667,0.3667,0.3632,0.3773,0.3708,0.3678,0.3653,0.3624,0.3383,0.347,0.3243,0.3266,0.3196,0.3017,0.3434,0.3367,0.337,0.3373,0.3375,0.3378,0,0.342,0.3479,0.3556,0.3603,0.3557,0.3598,0.3587,0.349,0.3398,0.3422,0.3397,0.3256,0.3135,0.3105,0.2892,0.2737,0.2638,0.2668,0.2482,0.2465,0.2929,0.2814,0.248,0.248,0.248,0.2481,0.2481,0.2481,0.345,0.3519,0.3537,0.3466,0.344,0.3299,0.3232,0.3115,0.3073,0.2876,0.2742,0.2742,0.2722,0.2574,0.2345,0.2285,0.2157,0.2002,0.2111,0.2439,0.2494,0.2547,0.2431,0.2023,0.2022,0.1485,0.148,0.1477]},{"header":{"parameterUnit":"m.s-1","parameterCategory":2,"la1":30.2991,"la2":30.254,"lo1":-89.0895,"lo2":-89.0444,"dy":0.0017,"dx":0.0017,"nx":28,"ny":28,"refTime":"2025-08-17T09:00:00:Z","depth":"0","parameterNumber":3,"parameterNumberName":"V-component_of_CURRENTS"},"data":[0,0,0,0,0,0,0,0,0,0,0,0,0,0,0,0,0,0,0,0,0,0,0,0,0,0,0,0,0,0,0,0,0,0,0,0,0,0,0,0,0,0,0,0,0,0,0,0,0,0,0,0,0,0,0,0,0,0,0.0247,0.0247,0,0.0223,0.0222,0.0222,0.0204,0.0204,0.0204,0.0204,0.0141,0.014,0.0138,0,0,0,0,0,0,0,0,0,0,0,0,0,0.0251,0.0251,0.0247,0.0247,0.0246,0.0223,0.0222,0.0222,0.0204,0.0204,0.0204,0.0204,0.0142,0.014,0.0138,0,0,0,0,0,0,0,0,0,0,0,0,0,0.024,0.0251,0.0247,0.0235,0.0234,0.0223,0.0222,0.0222,0.0204,0.0204,0.0204,0.0204,0.0142,0.014,0.0138,0.0127,0,0,0.0131,0.013,0,0,0,0,0,0,0,0,0.0241,0.024,0.0237,0.0236,0.0234,0.0217,0.0201,0.0188,0.0204,0.0215,0.0204,0.0204,0.0163,0.0159,0.0155,0.0124,0.0121,0.013,0.0129,0.0128,0.0127,0,0,0,0,0,0,0,0.0241,0.024,0.0237,0.0237,0.0235,0.0221,0.022,0.0198,0.0189,0.0214,0.0213,0.0211,0.0162,0.0157,0.0153,0.012,0.013,0.0128,0.0127,0.0126,0.0091,0.0092,0,0,0,0,0,0,0.0247,0.0241,0.0238,0.0236,0.0237,0.0222,0.022,0.0222,0.0191,0.0186,0.0211,0.021,0.0161,0.0156,0.0151,0.0159,0.0128,0.0126,0.0124,0.0091,0.0092,0.0092,0,0,0,0,0,0,0.0247,0.0247,0.0239,0.0238,0.0236,0.0222,0.0225,0.0222,0.022,0.0189,0.0183,0.0213,0.0161,0.0154,0.0138,0.0155,0.0125,0.0123,0.009,0.0091,0.0092,0.016,0,0,0,0,0,0,0.0247,0.0247,0.0252,0.0239,0.0237,0.0239,0.0225,0.0222,0.0219,0.0218,0.0188,0.0182,0.016,0.0141,0.0135,0.0152,0.0121,0.009,0.0091,0.0092,0.0157,0.0163,0.0168,0,0,0,0,0,0.0248,0.0259,0.0252,0.0252,0.0243,0.024,0.0238,0.0226,0.022,0.0223,0.0203,0.0183,0.0143,0.014,0.0133,0.0149,0.0089,0.0091,0.0092,0.0155,0.0162,0.0168,0,0,0,0,0,0,0.026,0.0258,0.025,0.0259,0.0251,0.0237,0.0241,0.0231,0.0218,0.0216,0.0185,0.0178,0.0172,0.0148,0.0145,0.0141,0.0114,0.0114,0.0165,0.0171,0.0177,0.0207,0.0119,0,0,0,0,0,0.0266,0.0274,0.0264,0.027,0.027,0.0256,0.0253,0.0245,0.0231,0.0226,0.0203,0.0182,0.0171,0.0161,0.0142,0.0137,0.0151,0.0143,0.0148,0.0153,0.0172,0.0234,0.0248,0.0096,0.0096,0.0096,0,0,0.0269,0.027,0.0273,0.0273,0.0268,0.0274,0.0254,0.0255,0.0259,0.022,0.0218,0.0198,0.0173,0.0171,0.0166,0.0153,0.0196,0.0154,0.0159,0.0176,0.0237,0.0252,0.0266,0.0096,0.0096,0.0096,0,0,0.0288,0.0286,0.0302,0.0298,0.0295,0.0289,0.0292,0.028,0.0276,0.0265,0.0248,0.0249,0.0208,0.0214,0.0207,0.0231,0.0224,0.0212,0.0265,0.0324,0.0338,0.0351,0.0365,0.0378,0.0215,0.0215,0.0215,0,0.0295,0.0309,0.0304,0.0316,0.0317,0.03,0.0313,0.0309,0.029,0.03,0.027,0.0266,0.0238,0.0271,0.0273,0.0248,0.0263,0.0244,0.0335,0.0348,0.036,0.0371,0.0385,0.0219,0.0218,0.0218,0.0218,0,0.0322,0.0331,0.0341,0.0352,0.0354,0.036,0.0355,0.0359,0.0346,0.0345,0.0365,0.0341,0.0348,0.0333,0.0303,0.0371,0.0347,0.0338,0.0327,0.038,0.0387,0.04,0.0224,0.0222,0.0221,0.0221,0,0,0.0344,0.0358,0.0362,0.0373,0.0372,0.0381,0.0395,0.0414,0.0452,0.0426,0.0483,0.0451,0.0455,0.0449,0.0429,0.0467,0.0541,0.0435,0.0437,0.0462,0.0647,0.0592,0.0601,0.0555,0.0558,0.0561,0.0611,0,0.0367,0.0399,0.0397,0.0425,0.0441,0.0434,0.0458,0.0473,0.0486,0.0537,0.0535,0.0573,0.0496,0.052,0.0544,0.056,0.0583,0.0527,0.058,0.0581,0.0539,0.0618,0.0588,0.0628,0.0623,0.0626,0.0627,0,0.0397,0.0413,0.0445,0.0474,0.0484,0.0498,0.0551,0.057,0.063,0.065,0.0689,0.0698,0.075,0.0685,0.0735,0.0703,0.0677,0.0671,0.0674,0.0615,0.0553,0.0577,0.0652,0.0537,0.0648,0.0646,0.0644,0,0.0424,0.0451,0.0479,0.0484,0.0514,0.0534,0.0553,0.0605,0.0658,0.0744,0.0815,0.085,0.0911,0.0896,0.0855,0.0814,0.0911,0.0858,0.0775,0.0768,0.0751,0.0738,0.0738,0.0897,0.0897,0.0897,0.0896,0,0.0451,0.0476,0.0495,0.051,0.0564,0.0567,0.0647,0.0678,0.0769,0.0882,0.0885,0.1,0.0974,0.1013,0.0934,0.0905,0.0974,0.081,0.08,0.0767,0.0755,0.0657,0.0591,0.0898,0.0898,0.0898,0.0897,0,0.0478,0.0489,0.0527,0.056,0.0579,0.0616,0.0702,0.0782,0.0848,0.1009,0.1053,0.1151,0.1214,0.1153,0.1159,0.103,0.0924,0.0949,0.0884,0.0865,0.0649,0.0588,0.0589,0.0545,0.0876,0.0875,0.0875,0,0.0498,0.0517,0.0565,0.0607,0.0624,0.0685,0.0754,0.0818,0.0924,0.1113,0.122,0.1322,0.1427,0.1381,0.1208,0.1076,0.0951,0.0905,0.0816,0.066,0.0585,0.0537,0.0497,0.0807,0.0806,0.0805,0.0804,0,0.0532,0.0546,0.0578,0.0665,0.0735,0.0826,0.0927,0.1021,0.1146,0.1292,0.1499,0.1593,0.1558,0.144,0.1222,0.1102,0.0812,0.0879,0.0769,0.0582,0.0486,0.043,0.0713,0.0796,0.0797,0.0798,0.0798,0.0799,0.0561,0.0596,0.0651,0.0738,0.0834,0.0978,0.1065,0.1207,0.1388,0.162,0.1692,0.1852,0.1612,0.134,0.1151,0.075,0.078,0.06,0.0553,0.0529,0.0451,0.0686,0.0721,0.0721,0.0722,0.0722,0.0722,0,0.0606,0.0654,0.0733,0.0852,0.0983,0.1016,0.1203,0.1309,0.1532,0.1749,0.192,0.1881,0.1585,0.125,0.0716,0.0456,0.0369,0.0324,0.0258,0.0244,0.0505,0.0463,0.0382,0.0382,0.0382,0.0382,0.0382,0.0383,0.0638,0.0716,0.0762,0.0971,0.1065,0.1227,0.1335,0.1496,0.1661,0.1893,0.1988,0.2051,0.1759,0.0863,0.0296,0.0185,0.0031,-0.0018,-0.0066,0.0093,0.0115,0.0136,0.0082,-0.0077,-0.0078,-0.0312,-0.0314,-0.0316]}],[{"header":{"parameterUnit":"m.s-1","parameterCategory":2,"la1":30.2991,"la2":30.254,"lo1":-89.0895,"lo2":-89.0444,"dy":0.0017,"dx":0.0017,"nx":28,"ny":28,"refTime":"2025-08-17T09:00:00:Z","depth":"2","parameterNumber":2,"parameterNumberName":"U-component_of_CURRENTS"},"data":[0,0,0,0,0,0,0,0,0,0,0,0,0,0,0,0,0,0,0,0,0,0,0,0,0,0,0,0,0,0,0,0,0,0,0,0,0,0,0,0,0,0,0,0,0,0,0,0,0,0,0,0,0,0,0,0,0,0,0.2122,0.2122,0,0.2123,0.2122,0.2122,0.2097,0.2096,0.2096,0.2096,0.2107,0.2108,0.2108,0,0,0,0,0,0,0,0,0,0,0,0,0,0.2114,0.2114,0.2122,0.2122,0.2123,0.2123,0.2122,0.2122,0.2097,0.2096,0.2096,0.2096,0.2107,0.2108,0.2108,0,0,0,0,0,0,0,0,0,0,0,0,0,0.2112,0.2114,0.2122,0.2114,0.2113,0.2123,0.2122,0.2122,0.2097,0.2096,0.2096,0.2096,0.2107,0.2108,0.2108,0.2121,0,0,0.2111,0.2111,0,0,0,0,0,0,0,0,0.2112,0.2112,0.2114,0.2114,0.2114,0.2113,0.2124,0.2123,0.2097,0.2098,0.2096,0.2096,0.2114,0.2114,0.2108,0.2121,0.2122,0.2111,0.2111,0.2112,0.2112,0,0,0,0,0,0,0,0.2112,0.2112,0.2117,0.2115,0.2115,0.2116,0.2114,0.2123,0.2104,0.2098,0.2097,0.2105,0.2113,0.2107,0.2108,0.2122,0.2111,0.2111,0.2112,0.2112,0.2168,0.2169,0,0,0,0,0,0,0.2121,0.2112,0.2118,0.2118,0.2117,0.2116,0.2115,0.211,0.2104,0.2104,0.2105,0.2104,0.2106,0.2107,0.2108,0.2172,0.2112,0.2112,0.2113,0.2167,0.2168,0.2169,0,0,0,0,0,0,0.2121,0.2121,0.2118,0.2119,0.2119,0.2117,0.2112,0.211,0.2116,0.211,0.2109,0.2114,0.2106,0.2107,0.2109,0.2171,0.2113,0.2113,0.2165,0.2167,0.2168,0.2269,0,0,0,0,0,0,0.212,0.212,0.2117,0.2119,0.212,0.2133,0.2113,0.2111,0.2122,0.2121,0.2118,0.2118,0.2106,0.2108,0.211,0.2171,0.2114,0.2164,0.2166,0.2168,0.2264,0.2274,0.2282,0,0,0,0,0,0.212,0.2121,0.2116,0.2117,0.2115,0.2135,0.2135,0.2129,0.2124,0.213,0.2115,0.2118,0.2122,0.2109,0.2111,0.2174,0.2163,0.2166,0.2168,0.226,0.2272,0.2281,0,0,0,0,0,0,0.2125,0.2119,0.2114,0.2115,0.2129,0.2132,0.2139,0.214,0.2134,0.2132,0.2119,0.2118,0.2179,0.2135,0.2121,0.2192,0.2149,0.2152,0.2219,0.223,0.2238,0.2257,0.2115,0,0,0,0,0,0.2123,0.2121,0.2124,0.2133,0.2136,0.214,0.2147,0.2149,0.2149,0.2146,0.2141,0.2141,0.2189,0.217,0.2208,0.2206,0.2216,0.2248,0.2257,0.2265,0.228,0.2365,0.2384,0.2176,0.2176,0.2176,0,0,0.2131,0.2131,0.2129,0.2135,0.214,0.216,0.2142,0.2163,0.2172,0.215,0.2154,0.2201,0.2209,0.2247,0.2264,0.2206,0.2321,0.2268,0.2275,0.2286,0.237,0.2391,0.2409,0.2178,0.2178,0.2177,0,0,0.2146,0.2143,0.2139,0.2157,0.2175,0.2184,0.2196,0.2202,0.2189,0.2205,0.2228,0.2277,0.229,0.2313,0.2328,0.239,0.241,0.2417,0.2427,0.251,0.2529,0.2546,0.2554,0.2571,0.2366,0.2367,0.2367,0,0.2146,0.2152,0.2148,0.2163,0.2173,0.22,0.2207,0.2217,0.2223,0.2247,0.2215,0.2331,0.2326,0.2413,0.243,0.2418,0.245,0.2392,0.2526,0.2543,0.2559,0.2564,0.2581,0.2372,0.2371,0.237,0.237,0,0.2169,0.2176,0.2187,0.2206,0.2213,0.2242,0.2249,0.2276,0.228,0.2318,0.2411,0.2405,0.2472,0.249,0.2472,0.2594,0.2578,0.2578,0.2509,0.2587,0.2585,0.2601,0.2379,0.2377,0.2376,0.2374,0,0,0.2149,0.2185,0.2189,0.2195,0.2235,0.2244,0.2281,0.2334,0.2394,0.2423,0.2491,0.2564,0.261,0.2627,0.2631,0.2661,0.2774,0.2655,0.2657,0.2677,0.2933,0.2803,0.2808,0.2825,0.283,0.2833,0.2876,0,0.2161,0.2179,0.2195,0.2228,0.223,0.2275,0.2313,0.2378,0.2427,0.2512,0.2565,0.2663,0.2645,0.2688,0.2733,0.2802,0.2829,0.276,0.2841,0.2841,0.2732,0.2827,0.2587,0.2598,0.2892,0.2895,0.2897,0,0.2164,0.2173,0.2181,0.2223,0.2229,0.2274,0.2352,0.2395,0.2548,0.259,0.2712,0.2782,0.2874,0.2826,0.2958,0.293,0.2944,0.2958,0.296,0.2821,0.2745,0.2572,0.2616,0.2924,0.2922,0.292,0.2918,0,0.2126,0.216,0.2158,0.2176,0.2239,0.2268,0.2326,0.2451,0.2521,0.2672,0.2773,0.2891,0.2969,0.3031,0.3057,0.3041,0.3177,0.3147,0.3034,0.3021,0.2818,0.2781,0.3245,0.3245,0.3244,0.3244,0.3244,0,0.2115,0.2127,0.2154,0.2171,0.2215,0.2251,0.2359,0.2436,0.2591,0.2711,0.2831,0.2919,0.3043,0.3128,0.3116,0.3122,0.3229,0.3065,0.3049,0.2837,0.2804,0.3088,0.3069,0.3246,0.3246,0.3245,0.3245,0,0.2075,0.2098,0.2115,0.2171,0.2202,0.2236,0.2397,0.2499,0.2634,0.2782,0.2845,0.3016,0.3106,0.3173,0.3257,0.3198,0.3198,0.3164,0.2867,0.2815,0.2962,0.2948,0.3053,0.305,0.3046,0.3044,0.3042,0,0.2051,0.2067,0.2111,0.2158,0.2197,0.2283,0.2378,0.251,0.2605,0.2807,0.2865,0.3031,0.3052,0.312,0.3082,0.3043,0.314,0.2796,0.2713,0.2981,0.2956,0.2946,0.2936,0.2467,0.246,0.2455,0.245,0,0.2019,0.2046,0.205,0.2153,0.2234,0.232,0.2439,0.2499,0.2641,0.2745,0.2826,0.2852,0.2922,0.2779,0.2761,0.2701,0.2781,0.268,0.3097,0.2544,0.243,0.2404,0.2414,0.2401,0.2406,0.241,0.2413,0.2415,0.199,0.2009,0.2044,0.2139,0.2226,0.2291,0.2326,0.2413,0.2477,0.2518,0.2635,0.258,0.2593,0.2424,0.2329,0.2295,0.2482,0.2367,0.2384,0.2407,0.2323,0.221,0.212,0.2123,0.2126,0.2128,0.213,0,0.1994,0.2021,0.2067,0.2128,0.2188,0.2263,0.2324,0.2286,0.2251,0.2294,0.2297,0.2079,0.1949,0.1984,0.1838,0.1805,0.1789,0.174,0.1714,0.1764,0.1808,0.1694,0.1324,0.1321,0.1319,0.1317,0,0,0.1991,0.1993,0.2006,0.2038,0.2119,0.2095,0.2091,0.201,0.1976,0.184,0.1793,0.1876,0.1919,0.1618,0.156,0.1423,0.1584,0.1358,0.2007,0.2028,0.2069,0.2172,0.2052,0,0,0,0,0]},{"header":{"parameterUnit":"m.s-1","parameterCategory":2,"la1":30.2991,"la2":30.254,"lo1":-89.0895,"lo2":-89.0444,"dy":0.0017,"dx":0.0017,"nx":28,"ny":28,"refTime":"2025-08-17T09:00:00:Z","depth":"2","parameterNumber":3,"parameterNumberName":"V-component_of_CURRENTS"},"data":[0,0,0,0,0,0,0,0,0,0,0,0,0,0,0,0,0,0,0,0,0,0,0,0,0,0,0,0,0,0,0,0,0,0,0,0,0,0,0,0,0,0,0,0,0,0,0,0,0,0,0,0,0,0,0,0,0,0,0.0139,0.0139,0,0.0115,0.0114,0.0114,0.0096,0.0096,0.0096,0.0096,0.0063,0.0062,0.0061,0,0,0,0,0,0,0,0,0,0,0,0,0,0.0134,0.0134,0.0139,0.0139,0.0139,0.0115,0.0114,0.0114,0.0096,0.0096,0.0096,0.0096,0.0063,0.0062,0.0061,0,0,0,0,0,0,0,0,0,0,0,0,0,0.0124,0.0134,0.0139,0.0128,0.0127,0.0115,0.0114,0.0114,0.0096,0.0096,0.0096,0.0096,0.0063,0.0062,0.0061,0.0054,0,0,0.0057,0.0056,0,0,0,0,0,0,0,0,0.0125,0.0125,0.013,0.0129,0.0127,0.0109,0.01,0.0094,0.0096,0.0107,0.0096,0.0096,0.0078,0.0076,0.007,0.0052,0.0051,0.0057,0.0056,0.0055,0.0055,0,0,0,0,0,0,0,0.0126,0.0125,0.0128,0.013,0.0128,0.0111,0.011,0.0099,0.0092,0.0106,0.0105,0.0104,0.0077,0.0071,0.0069,0.0051,0.0057,0.0056,0.0055,0.0054,0.0053,0.0054,0,0,0,0,0,0,0.0133,0.0126,0.0129,0.0128,0.0127,0.0112,0.011,0.0114,0.0092,0.0089,0.0104,0.0103,0.0073,0.007,0.0067,0.0081,0.0055,0.0054,0.0053,0.0053,0.0054,0.0054,0,0,0,0,0,0,0.0133,0.0134,0.013,0.0127,0.0125,0.0112,0.0117,0.0114,0.011,0.0091,0.0088,0.0103,0.0073,0.0069,0.0068,0.0079,0.0054,0.0052,0.0052,0.0053,0.0054,0.0095,0,0,0,0,0,0,0.0133,0.0134,0.0137,0.0128,0.0126,0.0129,0.0117,0.0113,0.011,0.0108,0.0089,0.0086,0.0073,0.007,0.0067,0.0077,0.0051,0.0051,0.0052,0.0054,0.0092,0.0097,0.0101,0,0,0,0,0,0.0133,0.0142,0.0138,0.0138,0.0132,0.0129,0.0127,0.0116,0.011,0.0111,0.0103,0.0086,0.0077,0.007,0.0066,0.0076,0.005,0.0052,0.0054,0.009,0.0096,0.0101,0,0,0,0,0,0,0.0139,0.0141,0.0136,0.0144,0.0139,0.0127,0.0128,0.0119,0.0113,0.0112,0.0094,0.009,0.0089,0.008,0.0073,0.0081,0.0062,0.0062,0.0091,0.0096,0.01,0.0119,0.005,0,0,0,0,0,0.0143,0.0151,0.0146,0.0151,0.0152,0.014,0.0137,0.0129,0.0123,0.012,0.0108,0.0099,0.0092,0.0093,0.008,0.0088,0.0078,0.0093,0.0097,0.0101,0.0114,0.0118,0.0124,0.006,0.006,0.006,0,0,0.0145,0.0147,0.015,0.0153,0.0148,0.0157,0.0138,0.0138,0.015,0.0117,0.0129,0.0106,0.0095,0.01,0.01,0.0097,0.011,0.0103,0.0106,0.0118,0.0121,0.0127,0.0133,0.0061,0.0061,0.0061,0,0,0.0159,0.0158,0.0172,0.0173,0.0172,0.0168,0.0171,0.0162,0.0166,0.0168,0.015,0.0144,0.013,0.0132,0.013,0.0154,0.0125,0.0142,0.0188,0.0191,0.0197,0.0202,0.0179,0.0182,0.0154,0.0154,0.0154,0,0.0162,0.0181,0.0173,0.0188,0.02,0.0178,0.02,0.0197,0.0189,0.0206,0.0179,0.0171,0.0152,0.0176,0.0178,0.0164,0.015,0.0167,0.0197,0.0202,0.0206,0.0182,0.0184,0.0156,0.0156,0.0156,0.0155,0,0.0188,0.0203,0.0212,0.0229,0.0239,0.0252,0.0255,0.0267,0.0262,0.0256,0.0268,0.0238,0.0242,0.0227,0.0206,0.023,0.0202,0.0193,0.0185,0.0215,0.0188,0.0189,0.0159,0.0158,0.0158,0.0157,0,0,0.0202,0.0228,0.0232,0.026,0.0267,0.0287,0.0316,0.0346,0.0386,0.035,0.0397,0.0358,0.0333,0.0329,0.03,0.0298,0.0296,0.0259,0.0258,0.0237,0.0282,0.0242,0.0239,0.0289,0.029,0.029,0.0245,0,0.0229,0.0275,0.0281,0.0333,0.0363,0.0371,0.0409,0.0431,0.0442,0.0476,0.0441,0.0458,0.0376,0.0385,0.0362,0.032,0.0305,0.0308,0.0256,0.0255,0.0216,0.0243,0.0256,0.0215,0.0246,0.0246,0.0246,0,0.0258,0.0291,0.0347,0.0416,0.0433,0.0458,0.0543,0.0573,0.0604,0.0615,0.0609,0.058,0.0561,0.0496,0.0422,0.0424,0.0356,0.0312,0.0309,0.0264,0.0219,0.0193,0.0216,0.0249,0.0248,0.0248,0.0248,0,0.029,0.0346,0.0402,0.0418,0.048,0.0524,0.0562,0.0612,0.0671,0.0708,0.0748,0.07,0.0701,0.0606,0.0479,0.0461,0.0395,0.0366,0.0262,0.0257,0.0256,0.025,0.0325,0.0325,0.0325,0.0325,0.0325,0,0.0323,0.0369,0.0422,0.0452,0.0547,0.057,0.0674,0.0712,0.0777,0.0857,0.0814,0.0858,0.0732,0.067,0.053,0.0392,0.0429,0.0276,0.0253,0.0267,0.0263,0.0287,0.0283,0.0323,0.0324,0.0324,0.0324,0,0.0345,0.0372,0.0448,0.0525,0.056,0.0628,0.0746,0.0831,0.0871,0.0979,0.0999,0.0989,0.0908,0.0757,0.0622,0.0479,0.0346,0.0288,0.0295,0.0273,0.0189,0.0188,0.0179,0.0178,0.0176,0.0175,0.0174,0,0.036,0.0395,0.0502,0.0567,0.0604,0.0708,0.0799,0.0873,0.0967,0.1055,0.1118,0.1082,0.1042,0.0808,0.059,0.0356,0.0335,0.0221,0.0193,0.0201,0.0179,0.018,0.018,0.0197,0.0196,0.0196,0.0195,0,0.0399,0.0432,0.0506,0.0634,0.0737,0.0857,0.0979,0.1061,0.116,0.1231,0.1297,0.1263,0.1055,0.0828,0.0523,0.0366,0.0255,0.0202,0.0238,0.0229,0.0214,0.0193,0.0194,0.0191,0.0191,0.0191,0.0192,0.0192,0.0439,0.0508,0.0611,0.0733,0.0851,0.0991,0.1083,0.1204,0.133,0.1409,0.1395,0.1325,0.109,0.0681,0.0439,0.0207,0.0217,0.0123,0.0127,0.0131,0.0138,0.0122,0.0081,0.0081,0.008,0.008,0.008,0,0.05,0.0587,0.0711,0.0863,0.0981,0.1031,0.1205,0.1275,0.1398,0.1445,0.1453,0.12,0.0949,0.0686,0.0336,0.0113,0.0105,0.0047,0.0092,0.0099,0.0104,0.0111,0.0046,0.0045,0.0044,0.0044,0,0,0.055,0.0681,0.0754,0.0954,0.1043,0.1184,0.1268,0.1356,0.141,0.1415,0.1369,0.1292,0.099,0.0729,0.0445,0.025,0.0222,0.0206,0.0256,0.035,0.0357,0.0168,0.0188,0,0,0,0,0]}],[{"header":{"parameterUnit":"m.s-1","parameterCategory":2,"la1":30.2991,"la2":30.254,"lo1":-89.0895,"lo2":-89.0444,"dy":0.0017,"dx":0.0017,"nx":28,"ny":28,"refTime":"2025-08-17T09:00:00:Z","depth":"4","parameterNumber":2,"parameterNumberName":"U-component_of_CURRENTS"},"data":[0,0,0,0,0,0,0,0,0,0,0,0,0,0,0,0,0,0,0,0,0,0,0,0,0,0,0,0,0,0,0,0,0,0,0,0,0,0,0,0,0,0,0,0,0,0,0,0,0,0,0,0,0,0,0,0,0,0,0.1103,0.1103,0,0.1135,0.1136,0.1136,0.118,0.1181,0.1182,0.1183,0.1163,0.1162,0.1161,0,0,0,0,0,0,0,0,0,0,0,0,0,0.1096,0.1096,0.1103,0.1103,0.1103,0.1135,0.1136,0.1136,0.118,0.1181,0.1182,0.1183,0.1164,0.1162,0.1161,0,0,0,0,0,0,0,0,0,0,0,0,0,0.1111,0.1096,0.1103,0.1129,0.1131,0.1135,0.1136,0.1136,0.118,0.1181,0.1182,0.1183,0.1164,0.1162,0.1161,0.1129,0,0,0.1155,0.1155,0,0,0,0,0,0,0,0,0.111,0.1112,0.1125,0.1127,0.113,0.1154,0.1126,0.1131,0.118,0.1162,0.1183,0.1184,0.1154,0.1153,0.1159,0.1128,0.1127,0.1155,0.1154,0.1153,0.1153,0,0,0,0,0,0,0,0.1109,0.111,0.1116,0.1125,0.1128,0.1145,0.1148,0.1128,0.1151,0.1164,0.1167,0.1169,0.1156,0.116,0.1158,0.1127,0.1155,0.1154,0.1153,0.1152,0.1154,0.1155,0,0,0,0,0,0,0.1102,0.1109,0.1115,0.1117,0.1122,0.1144,0.1148,0.1146,0.1153,0.1155,0.1169,0.1171,0.1163,0.116,0.1158,0.1196,0.1153,0.1152,0.1151,0.1153,0.1154,0.1156,0,0,0,0,0,0,0.1102,0.1102,0.1114,0.1114,0.1117,0.1143,0.1141,0.1146,0.1175,0.1157,0.1159,0.1195,0.1164,0.116,0.116,0.1193,0.1151,0.1149,0.1152,0.1154,0.1155,0.1224,0,0,0,0,0,0,0.1101,0.1101,0.1112,0.1113,0.1116,0.1126,0.114,0.1146,0.1173,0.1178,0.1179,0.1178,0.1164,0.1163,0.1158,0.119,0.1148,0.115,0.1153,0.1155,0.122,0.1227,0.1234,0,0,0,0,0,0.1101,0.1104,0.1112,0.1114,0.1125,0.1127,0.113,0.1153,0.1174,0.1184,0.119,0.1179,0.1173,0.1161,0.1156,0.1188,0.1149,0.1152,0.1154,0.1217,0.1226,0.1234,0,0,0,0,0,0,0.111,0.1109,0.1118,0.1123,0.113,0.1134,0.1152,0.1164,0.1179,0.1192,0.118,0.1178,0.1196,0.1176,0.1163,0.1196,0.1164,0.1166,0.1214,0.1222,0.1229,0.1252,0.1147,0,0,0,0,0,0.1114,0.1119,0.1119,0.1127,0.1133,0.1148,0.1158,0.117,0.1176,0.1187,0.1186,0.119,0.1197,0.1197,0.1193,0.1196,0.1208,0.1218,0.1225,0.1231,0.1246,0.1291,0.1305,0.1164,0.1164,0.1164,0,0,0.1118,0.1122,0.1124,0.113,0.1143,0.1141,0.1158,0.1177,0.1182,0.1178,0.1195,0.1211,0.1204,0.1221,0.1228,0.121,0.1277,0.1234,0.1239,0.1252,0.1296,0.1309,0.1322,0.1166,0.1165,0.1165,0,0,0.1118,0.1136,0.1135,0.1137,0.1154,0.116,0.1169,0.1181,0.1201,0.1211,0.1224,0.1265,0.125,0.1272,0.1276,0.1315,0.1314,0.1314,0.1364,0.1408,0.1421,0.1431,0.1469,0.1482,0.1315,0.1315,0.1315,0,0.1129,0.1118,0.1137,0.1133,0.1134,0.1167,0.116,0.1179,0.1192,0.1215,0.1223,0.1283,0.1281,0.1329,0.1353,0.1335,0.1354,0.1333,0.1419,0.143,0.144,0.1476,0.149,0.1319,0.1318,0.1318,0.1318,0,0.1113,0.1112,0.1115,0.1117,0.1125,0.1128,0.1145,0.1173,0.1207,0.1232,0.1301,0.133,0.1374,0.1386,0.1382,0.146,0.145,0.1425,0.1401,0.1459,0.1492,0.1506,0.1324,0.1323,0.1322,0.1321,0,0,0.1117,0.1104,0.1107,0.1102,0.1114,0.1119,0.1141,0.1172,0.122,0.1266,0.1329,0.1386,0.1446,0.1458,0.1483,0.153,0.1625,0.1517,0.1517,0.156,0.1727,0.1566,0.1565,0.1617,0.162,0.1622,0.1723,0,0.1101,0.1072,0.1079,0.1071,0.1055,0.1093,0.1119,0.1161,0.1218,0.1289,0.1368,0.144,0.1458,0.1513,0.1568,0.1614,0.1664,0.16,0.1659,0.1661,0.1516,0.1576,0.163,0.1733,0.1736,0.1738,0.174,0,0.1076,0.106,0.103,0.1044,0.105,0.1065,0.1133,0.1166,0.1271,0.1329,0.1432,0.149,0.1603,0.1598,0.1731,0.1692,0.1722,0.175,0.1754,0.159,0.1525,0.1661,0.1765,0.1763,0.1761,0.1759,0.1758,0,0.1044,0.1032,0.1007,0.1003,0.1025,0.1052,0.1096,0.1186,0.1251,0.1376,0.1454,0.1569,0.1663,0.1726,0.1789,0.1775,0.1906,0.1884,0.1769,0.1758,0.1844,0.1831,0.1966,0.1966,0.1966,0.1966,0.1966,0,0.0999,0.0991,0.0997,0.0984,0.1004,0.1044,0.1116,0.1181,0.1313,0.1405,0.1497,0.1588,0.1704,0.178,0.1815,0.1831,0.1929,0.1795,0.1776,0.1869,0.1858,0.1854,0.1839,0.197,0.1969,0.1968,0.1967,0,0.0946,0.0949,0.093,0.0957,0.0981,0.1003,0.1123,0.1186,0.1324,0.145,0.15,0.1643,0.173,0.18,0.19,0.1859,0.1884,0.1855,0.1957,0.194,0.1708,0.1696,0.176,0.1755,0.1751,0.1748,0.1745,0,0.0902,0.0882,0.0902,0.0914,0.093,0.0987,0.1038,0.1175,0.1251,0.1468,0.1518,0.165,0.1718,0.1745,0.1808,0.1837,0.181,0.1814,0.1761,0.1713,0.169,0.1684,0.1678,0.1739,0.1738,0.1737,0.1736,0,0.0817,0.0838,0.0829,0.0859,0.0899,0.0935,0.1025,0.1081,0.1256,0.1389,0.1507,0.1558,0.1634,0.1674,0.1687,0.1707,0.1808,0.1771,0.178,0.1731,0.1688,0.1667,0.1666,0.1722,0.1724,0.1725,0.1726,0,0.0773,0.0754,0.0769,0.08,0.0848,0.0881,0.0927,0.1022,0.1121,0.136,0.1387,0.1517,0.163,0.1607,0.1628,0.1615,0.1601,0.1559,0.1578,0.1595,0.1484,0.14,0.1345,0,0,0,0,0,0.0707,0.0701,0.0719,0.0746,0.0798,0.084,0.0925,0.0984,0.1146,0.1197,0.1302,0.1362,0.1414,0.1467,0.142,0.1528,0.1585,0.1465,0.1541,0.1644,0.166,0.1539,0,0,0,0,0,0,0.0669,0.067,0.0689,0.0707,0.0741,0.079,0.0844,0.0941,0.0973,0.114,0.1163,0.1288,0.1334,0.144,0.1405,0.1417,0.1435,0.1539,0.1535,0.1634,0.1649,0.1662,0.1543,0,0,0,0,0]},{"header":{"parameterUnit":"m.s-1","parameterCategory":2,"la1":30.2991,"la2":30.254,"lo1":-89.0895,"lo2":-89.0444,"dy":0.0017,"dx":0.0017,"nx":28,"ny":28,"refTime":"2025-08-17T09:00:00:Z","depth":"4","parameterNumber":3,"parameterNumberName":"V-component_of_CURRENTS"},"data":[0,0,0,0,0,0,0,0,0,0,0,0,0,0,0,0,0,0,0,0,0,0,0,0,0,0,0,0,0,0,0,0,0,0,0,0,0,0,0,0,0,0,0,0,0,0,0,0,0,0,0,0,0,0,0,0,0,0,0.0127,0.0127,0,0.012,0.012,0.012,0.0111,0.0111,0.0111,0.0111,0.0112,0.0112,0.0112,0,0,0,0,0,0,0,0,0,0,0,0,0,0.0115,0.0116,0.0127,0.0127,0.0127,0.012,0.012,0.0119,0.0111,0.0111,0.0111,0.011,0.0112,0.0112,0.0112,0,0,0,0,0,0,0,0,0,0,0,0,0,0.0115,0.0116,0.0127,0.0122,0.0122,0.012,0.012,0.0119,0.0111,0.0111,0.0111,0.011,0.0112,0.0112,0.0112,0.0117,0,0,0.0113,0.0113,0,0,0,0,0,0,0,0,0.0115,0.0116,0.0123,0.0123,0.0122,0.0116,0.0116,0.0119,0.0111,0.0115,0.0111,0.011,0.0115,0.0115,0.0113,0.0117,0.0117,0.0113,0.0113,0.0113,0.0113,0,0,0,0,0,0,0,0.0115,0.0116,0.0124,0.0123,0.0122,0.0114,0.0114,0.0116,0.0116,0.0114,0.0114,0.0113,0.0114,0.0113,0.0113,0.0117,0.0113,0.0113,0.0113,0.0113,0.0134,0.0135,0,0,0,0,0,0,0.0118,0.0116,0.0124,0.0124,0.0119,0.0114,0.0114,0.0118,0.0115,0.0115,0.0114,0.0113,0.0113,0.0113,0.0113,0.013,0.0113,0.0113,0.0114,0.0134,0.0134,0.0135,0,0,0,0,0,0,0.0118,0.0119,0.0125,0.012,0.012,0.0115,0.0119,0.0118,0.0119,0.0115,0.0114,0.0116,0.0112,0.0113,0.0122,0.013,0.0114,0.0114,0.0133,0.0134,0.0135,0.0157,0,0,0,0,0,0,0.0118,0.0119,0.0124,0.012,0.012,0.0128,0.0119,0.0118,0.0119,0.0118,0.0117,0.0116,0.0112,0.0121,0.0122,0.013,0.0114,0.0133,0.0134,0.0134,0.0156,0.0159,0.0161,0,0,0,0,0,0.0117,0.0125,0.0124,0.0125,0.0126,0.0129,0.0128,0.0124,0.0119,0.0123,0.0123,0.0116,0.0127,0.0122,0.0122,0.0131,0.0132,0.0133,0.0134,0.0155,0.0158,0.0161,0,0,0,0,0,0,0.0121,0.0125,0.0123,0.0132,0.0132,0.0128,0.0131,0.0127,0.0129,0.0129,0.0123,0.0124,0.0134,0.013,0.0125,0.0139,0.0128,0.0129,0.0143,0.0146,0.0149,0.0152,0.0114,0,0,0,0,0,0.0124,0.0132,0.0132,0.0139,0.0141,0.0137,0.0137,0.0134,0.0135,0.0135,0.0134,0.0134,0.0138,0.014,0.0142,0.0151,0.0129,0.0157,0.0159,0.0161,0.0164,0.0131,0.013,0.0138,0.0138,0.0138,0,0,0.0126,0.013,0.0134,0.014,0.0141,0.0153,0.0137,0.0141,0.0152,0.0136,0.0151,0.0144,0.0142,0.0152,0.0156,0.015,0.0148,0.0162,0.0164,0.0166,0.0132,0.0131,0.013,0.0139,0.0139,0.0138,0,0,0.0138,0.014,0.0152,0.0157,0.0162,0.0163,0.0166,0.0166,0.0167,0.0178,0.0168,0.0165,0.0176,0.017,0.0171,0.0188,0.0161,0.019,0.0206,0.0173,0.0172,0.0171,0.014,0.0136,0.0191,0.0191,0.0191,0,0.0141,0.0159,0.0155,0.017,0.0181,0.0171,0.019,0.0191,0.0192,0.0196,0.0189,0.0189,0.0184,0.019,0.0195,0.0193,0.017,0.0195,0.0175,0.0174,0.0172,0.0141,0.0136,0.0192,0.0192,0.0192,0.0192,0,0.0163,0.018,0.0188,0.0209,0.0217,0.0231,0.0235,0.0241,0.0241,0.0238,0.0241,0.0226,0.0226,0.0221,0.0216,0.0205,0.0191,0.0181,0.0166,0.0172,0.014,0.0134,0.0194,0.0194,0.0193,0.0193,0,0,0.0168,0.02,0.0204,0.0226,0.0241,0.0254,0.0272,0.0286,0.03,0.0287,0.0294,0.0287,0.0268,0.0267,0.0249,0.0219,0.0185,0.0198,0.0196,0.0165,0.0111,0.01,0.0093,0.0167,0.0167,0.0166,0.0092,0,0.0191,0.0233,0.024,0.0283,0.0309,0.031,0.0333,0.034,0.034,0.0343,0.0311,0.0315,0.029,0.0289,0.0253,0.0203,0.0172,0.0206,0.0113,0.011,0.0097,0.0087,0.0164,0.0088,0.0087,0.0086,0.0085,0,0.0212,0.0243,0.029,0.0335,0.0347,0.0373,0.0408,0.0425,0.0419,0.0416,0.0395,0.0367,0.0328,0.0303,0.0211,0.0233,0.0179,0.0133,0.0128,0.0107,0.0089,0.0081,0.0074,0.0075,0.0076,0.0077,0.0077,0,0.023,0.0277,0.0322,0.0337,0.0384,0.041,0.0438,0.0451,0.0476,0.0461,0.0465,0.0406,0.0384,0.0299,0.02,0.0206,0.0086,0.0083,0.0021,0.0019,0.0041,0.0043,0.0018,0.0018,0.0018,0.0018,0.0019,0,0.0254,0.029,0.034,0.0368,0.0432,0.0448,0.051,0.0521,0.0539,0.0564,0.0508,0.0497,0.0381,0.0296,0.0203,0.0088,0.0086,0.002,-0.0002,0.0053,0.0057,0.0036,0.0039,0.0016,0.0016,0.0017,0.0017,0,0.0267,0.0297,0.0353,0.0415,0.0445,0.0492,0.0575,0.0612,0.062,0.0644,0.0641,0.0565,0.0451,0.0322,0.0177,0.0104,-0.0011,-0.005,0.0013,-0.0004,-0.0055,-0.005,-0.0119,-0.012,-0.0121,-0.0122,-0.0122,0,0.0279,0.0311,0.0392,0.0438,0.0475,0.0554,0.0612,0.0654,0.0687,0.0682,0.0684,0.0589,0.0519,0.03,0.0164,-0.0024,-0.0044,-0.0099,-0.0071,-0.0055,-0.007,-0.0063,-0.0057,-0.0124,-0.0124,-0.0124,-0.0124,0,0.0305,0.0331,0.0381,0.0473,0.0546,0.0625,0.0701,0.0735,0.0768,0.0772,0.0717,0.0606,0.0473,0.0299,0.0148,0.0017,-0.0063,-0.0108,-0.0106,-0.0081,-0.0062,-0.0074,-0.0067,-0.0127,-0.0127,-0.0127,-0.0127,0,0.0321,0.0363,0.0427,0.0509,0.059,0.0662,0.0712,0.0749,0.0784,0.0773,0.0748,0.0607,0.0526,0.032,0.0178,0.0044,0.0023,-0.0005,-0.0009,-0.0007,0.0046,0.0088,0.0046,0,0,0,0,0,0.0334,0.0387,0.0462,0.0547,0.0618,0.0671,0.0751,0.0788,0.082,0.0788,0.0773,0.0646,0.0439,0.0342,0.0207,0.0163,-0.0002,0.0002,-0.0037,-0.0144,-0.0141,-0.0099,0,0,0,0,0,0,0.0351,0.0416,0.0461,0.0551,0.0612,0.07,0.0755,0.0783,0.0764,0.0767,0.0652,0.0613,0.0402,0.0507,0.02,0.0161,0.012,-0.0093,-0.0096,-0.0146,-0.0143,-0.014,-0.0096,0,0,0,0,0]}]]